Regional Weather Roundup
Issued by NWS

Home | Current Version | Previous Version | Graphics & Text | Print | Product List | Glossary Off
Versions: 1 2 3 4 5 6 7 8 9 10 11 12 13 14 15 16 17 18 19 20 21 22 23 24 25 26 27 28 29 30 31 32 33 34 35 36 37 38 39 40 41 42 43 44 45 46 47 48 49 50

000
ASUS43 KMKX 090111
RWRWI

WISCONSIN REGIONAL WEATHER ROUNDUP
NATIONAL WEATHER SERVICE MILWAUKEE/SULLIVAN WI
700 PM CST MON FEB 08 2016

NOTE: "FAIR" INDICATES FEW OR NO CLOUDS BELOW 12,000 FEET WITH NO
SIGNIFICANT WEATHER AND/OR OBSTRUCTIONS TO VISIBILITY.

WIZ001-002-006>008-014>016-023>028-090200-
NORTHWEST WISCONSIN

CITY           SKY/WX    TMP DP  RH WIND       PRES   REMARKS
SUPERIOR ARPT  CLOUDY    11   2  66 N10G16    29.99R WCI  -3
ASHLAND        CLOUDY    12   6  77 NW9G18    29.90S WCI   0
HAYWARD        LGT SNOW  10   4  76 N8        29.89R WCI  -2
SIREN          FLURRIES  11   4  70 NW13G18   29.95R WCI  -3
CUMBERLAND     CLOUDY    10   5  79 NW15G21   29.89R WCI  -6
RICE LAKE      LGT SNOW  13   7  78 NW12G20   29.91R WCI  -1
CHETEK         LGT SNOW  12   8  82 NW9       29.89S WCI   0
LADYSMITH      LGT SNOW  13   8  80 NW9       29.87S WCI   0
EAU CLAIRE     CLOUDY    13   5  70 NW14G21   29.89S WCI  -2
MENOMONIE      LGT SNOW  15   9  76 NW13      29.91S WCI   1
NEW RICHMOND   FLURRIES  13   6  75 NW15      29.94S WCI  -3
OSCEOLA        FLURRIES  14   7  73 NW13G18   29.98S WCI   0
$$

WIZ003>005-009-010-017-018-090200-
NORTH CENTRAL WISCONSIN

CITY           SKY/WX    TMP DP  RH WIND       PRES   REMARKS
MANITOWISH WTR LGT SNOW  11   8  86 NW8       29.77S WCI  -1
ARBOR VITAE    LGT SNOW  14  10  82 NW10G16   29.76F WCI   1
WOODRUFF       LGT SNOW  14  10  82 NW10G16   29.76F WCI   1
RHINELANDER    FLURRIES  13   6  74 NW10G23   29.75R WCI   0
EAGLE RIVER    FLURRIES  13   6  73 NW14G20   29.74S WCI  -2
LAND O LAKES   LGT SNOW  13   9  82 NW9       29.75S WCI   1
PHILLIPS       FLURRIES  10   5  79 NW6       29.80S WCI   0
TOMAHAWK       CLOUDY    13   7  76 NW9       29.78S WCI   1
MEDFORD        CLOUDY    12   7  82 NW14G21   29.78S HAZE    WCI  -4
MERRILL        LGT SNOW  15  10  80 NW10      29.78S WCI   3
$$

WIZ029-030-035-036-043>047-090200-
CENTRAL WISCONSIN

CITY           SKY/WX    TMP DP  RH WIND       PRES   REMARKS
WAUSAU         LGT SNOW  18  11  74 NW10G21   29.76R WCI   6
MOSINEE        LGT SNOW  16  14  93 NW15G21   29.77S WCI   1
MARSHFIELD     LGT SNOW  14   7  73 NW20      29.78S WCI  -3
STEVENS POINT  LGT SNOW  15  11  83 W6        29.78S WCI   6
WAUPACA        CLOUDY    24  16  70 NW13G21   29.76S WCI  13
WAUTOMA        FLURRIES  18  13  80 NW13G21   29.79S WCI   5
WISC RAPIDS    CLOUDY    15   8  73 NW12      29.81S WCI   2
CAMP DOUGLAS   FLURRIES  14  12  92 NW14      29.83R WCI  -1
$$

WIZ011>013-019>022-031-037>040-048>050-090200-
NORTHEAST WISCONSIN

CITY           SKY/WX    TMP DP  RH WIND       PRES   REMARKS
ANTIGO         LGT SNOW  15  11  84 NW13      29.73S WCI   1
SHAWANO        FLURRIES  25  17  69 NW14G20   29.75R WCI  14
OCONTO         CLOUDY    22  20  92 N12G17    29.75R WCI  10
STURGEON BAY   CLOUDY    23  16  74 NW20G25   29.75R WCI   8
GREEN BAY      LGT SNOW  25  21  85 N12       29.74S FOG     WCI  14
MANITOWOC      LGT SNOW  26  23  88 N14       29.72S FOG     WCI  14
APPLETON       LGT SNOW  25  19  80 NW7       29.71S WCI  17
CLINTONVILLE   LGT SNOW  23  18  80 NW13      29.75R WCI  11
OSHKOSH        LGT SNOW  22  17  81 W12       29.74R WCI  10
$$

WIZ032>034-041-042-053>061-090200-
SOUTHWEST WISCONSIN

CITY           SKY/WX    TMP DP  RH WIND       PRES   REMARKS
LA CROSSE      LGT SNOW  15  10  80 NW12      29.90S WCI   2
SPARTA         LGT SNOW  15  10  83 NW9       29.87F WCI   3
VIROQUA        CLOUDY    13   8  83 NW12      29.83S WCI  -1
BOSCOBEL       CLOUDY    17   7  64 NW10G18   29.88S WCI   5
PRAIRIE DU CHI LGT SNOW  16   9  72 NW10      29.90S WCI   4
PLATTEVILLE    CLOUDY    17  10  74 NW18      29.83R WCI   1
$$

WIZ056-057-062-063-064-067-068-090200-
SOUTH CENTRAL WISCONSIN

CITY           SKY/WX    TMP DP  RH WIND       PRES   REMARKS
REEDSBURG      CLOUDY    16   9  76 NW10G18   29.82S WCI   3
BARABOO/DELLS  CLOUDY    17   8  68 NW15      29.81R WCI   2
LONE ROCK      CLOUDY    18   7  62 NW15G24   29.85R WCI   4
MINERAL POINT  CLOUDY    19  10  68 NW16G22   29.80R WCI   5
MADISON        FLURRIES  20  11  68 NW12      29.78S WCI   8
MIDDLETON      CLOUDY    21  12  68 NW17      29.79S WCI   7
WATERTOWN      LGT SNOW  21  20  94 NW15G21   29.75S WCI   8
MONROE         CLOUDY    21  14  73 NW9G18    29.77S WCI  11
JANESVILLE     FLURRIES  25  19  80 NW13G18   29.77S WCI  13
$$

WIZ051-052-058>065-066-070>072-090200-
SOUTHEAST WISCONSIN

CITY           SKY/WX    TMP DP  RH WIND       PRES   REMARKS
MILWAUKEE      LGT SNOW  24  19  81 NW14G24   29.72R WCI  12
WAUKESHA       CLOUDY    21  18  86 NW14G20   29.74R WCI   8
MILWAUKEE/TIMM LGT SNOW  25  18  74 NW13      29.74R WCI  13
RACINE         FLURRIES  25  18  74 NW10      29.73F WCI  15
BURLINGTON     LGT SNOW  21  18  88 NW9       29.74S WCI  11
KENOSHA        LGT SNOW  24  19  81 NW15G22   29.73R WCI  11
FOND DU LAC    LGT SNOW  22  17  81 NW14      29.74S WCI   9
SHEBOYGAN      LGT SNOW  26  22  84 NW9       29.71S FOG     WCI  17
WEST BEND      LGT SNOW  23  21  93 NW10G17   29.72R WCI  12
JUNEAU         LGT SNOW  20  17  85 NW10G17   29.76R WCI   9
$$

LSZ147-162-090200-
LAKE SUPERIOR

STATION/POSITION TIME  TEMP    WIND        PRES    WAVE
                       AIR SEA DIR/SP/G            HT/PER
                 (UTC) (F)     (DEG/KT/KT) (MB)    (FT/S)
DEVILS ISLAND    0100   14     320/ 22/ 25 1013.9R
PORT WING        0040   14     320/ 20/ 24 1014.2R
SAXON HARBOR     0040   17                 1011.5S
$$

LMZ867-665-643>646-090200-
LAKE MICHIGAN

STATION/POSITION TIME  TEMP    WIND        PRES    WAVE
                       AIR SEA DIR/SP/G            HT/PER
                 (UTC) (F)     (DEG/KT/KT) (MB)    (FT/S)
CHAMBERS ISLAND  0000   24     320/ 17/ 21 1007.1R
NORTHPORT PIER   0102   23     340/ 21/ 25 1006.8S
ALGOMA LAKESHORE 0011          330/ 12/ 16   N/A
KEWAUNEE LAKESHO 0000   25     340/  8/ 11 1005.7R
SHEBOYGAN LAKESH 0100   27     320/ 11/ 14 1007.3R
PORT WASHINGTON  0000   27     300/  8/ 15 1007.1R
MILWAUKEE LAKESH 0010   26     300/ 13/ 17   N/A
KENOSHA   LAKESH 0100   24     290/ 13/ 19 1006.8R
$$

TC  - TEMPERATURE IN CELSIUS
VSB - VISIBILITY IN STATUTE MILES
WCI - WIND CHILL INDEX
HX  - HEAT INDEX




USA.gov is the U.S. government's official web portal to all federal, state and local government web resources and services.